Zurück zum Katalog

KUIPER-00200

AktivKommunikationLEO
NORAD 67772·PAYLOAD·🇺🇸 United States

Gestartet Feb 12, 2026 von Guiana Space Centre

Loading…

Nächste Überflüge (nächste 24 Stunden)

TLE

AktuellSource: CelesTrak SupGP

Epoche: Sep 14, 2026, 15:35 UTC

1 67772C 26030J   26257.64965278 -.00001213  00000+0 -15876-3 0  2574
2 67772  51.8973  70.0550 0000686 106.7586 178.0580 14.79922825    13

Verfolge KUIPER-00200 in Echtzeit mit AllMySat

Download on the App Store